[[{"header":{"parameterUnit":"m.s-1","parameterCategory":1,"la1":30.2991,"la2":30.254,"lo1":-89.0895,"lo2":-89.0444,"dy":0.0017,"dx":0.0017,"nx":28,"ny":28,"refTime":"2024-02-29T03:00:00:Z","depth":0,"parameterNumber":2,"parameterNumberName":"U-component_of_WINDS"},"data":[0,0,0,0,0,0,0,0,0,0,0,0,0,0,0,0,0,0,0,0,0,0,0,0,0,0,0,0,0,0,0,0,0,0,0,0,0,0,0,0,0,0,0,0,0,0,0,0,0,0,0,0,0,0,0,0,0,0,2.8872,2.8872,0,2.886,2.886,2.886,2.8759,2.8757,2.8754,2.8752,2.874,2.8742,2.8744,0,0,0,0,0,0,0,0,0,0,0,0,0,2.8809,2.881,2.8872,2.8872,2.8872,2.886,2.886,2.886,2.876,2.8757,2.8754,2.8751,2.8739,2.8742,2.8744,0,0,0,0,0,0,0,0,0,0,0,0,0,2.8821,2.8811,2.8872,2.882,2.8816,2.886,2.886,2.886,2.876,2.8757,2.8753,2.8749,2.8739,2.8742,2.8745,2.8838,0,0,2.8754,2.8755,0,0,0,0,0,0,0,0,2.882,2.8823,2.8828,2.8824,2.8819,2.8807,2.8833,2.8853,2.8761,2.8781,2.8752,2.8747,2.8766,2.8766,2.8772,2.8838,2.8837,2.8754,2.8756,2.8757,2.8758,0,0,0,0,0,0,0,2.8819,2.8823,2.8867,2.8828,2.8823,2.8798,2.8796,2.8837,2.8795,2.8779,2.8772,2.8772,2.8762,2.8769,2.8771,2.8837,2.8754,2.8757,2.8759,2.876,2.898,2.8984,0,0,0,0,0,0,2.8826,2.8823,2.8868,2.8867,2.881,2.8802,2.8799,2.8815,2.8794,2.8787,2.8775,2.8767,2.8766,2.8768,2.877,2.8879,2.8757,2.876,2.8762,2.8976,2.8981,2.8985,0,0,0,0,0,0,2.8825,2.8831,2.8868,2.8843,2.8846,2.8807,2.8825,2.8817,2.8824,2.8791,2.8783,2.879,2.8763,2.8766,2.8822,2.8877,2.8761,2.8764,2.8971,2.8977,2.8983,2.9098,0,0,0,0,0,0,2.8823,2.8831,2.8866,2.8845,2.8848,2.8921,2.8829,2.8819,2.8829,2.8819,2.8803,2.8797,2.8761,2.8818,2.8825,2.888,2.8766,2.8966,2.8974,2.8981,2.9089,2.9107,2.9123,0,0,0,0,0,2.8821,2.8899,2.8868,2.8874,2.8891,2.8924,2.8926,2.8883,2.8834,2.8869,2.8848,2.8797,2.887,2.8825,2.8832,2.8888,2.8962,2.8972,2.8981,2.9082,2.9104,2.9122,0,0,0,0,0,0,2.8927,2.8895,2.8861,2.8933,2.8932,2.8907,2.895,2.8907,2.892,2.891,2.8856,2.8853,2.8918,2.8908,2.8858,2.8978,2.8908,2.8919,2.8982,2.9003,2.9019,2.902,2.8769,0,0,0,0,0,2.8959,2.8989,2.8959,2.9026,2.9027,2.8989,2.9002,2.8969,2.8966,2.8965,2.8947,2.8947,2.8969,2.8985,2.9004,2.9087,2.9083,2.9129,2.9146,2.916,2.917,2.9214,2.9235,2.9015,2.9015,2.9015,0,0,2.9025,2.9011,2.9033,2.9047,2.9042,2.9074,2.8989,2.9027,2.905,2.897,2.9022,2.901,2.9005,2.9076,2.9106,2.907,2.923,2.9172,2.9183,2.9186,2.9226,2.9247,2.9265,2.9021,2.902,2.9019,0,0,2.9162,2.9154,2.9209,2.9206,2.9201,2.9175,2.9188,2.917,2.9159,2.921,2.9151,2.9178,2.9219,2.9218,2.9223,2.9361,2.9315,2.9369,2.9457,2.95,2.9518,2.9533,2.9583,2.9601,2.9379,2.9379,2.9379,0,2.9244,2.9291,2.9243,2.9285,2.9293,2.9222,2.9278,2.9278,2.9279,2.9286,2.9246,2.9295,2.9287,2.9357,2.9391,2.9397,2.9411,2.937,2.9519,2.9534,2.9547,2.9594,2.9613,2.9386,2.9385,2.9384,2.9384,0,2.9393,2.9426,2.9472,2.9475,2.9488,2.9537,2.9497,2.9516,2.9482,2.9461,2.9515,2.9503,2.9519,2.9533,2.95,2.9598,2.9576,2.9528,2.9456,2.9575,2.9619,2.9636,2.9395,2.9393,2.9391,2.9389,0,0,2.9596,2.9573,2.959,2.9591,2.958,2.9605,2.9651,2.9666,2.9684,2.9687,2.9725,2.9761,2.9717,2.9723,2.9689,2.9727,2.9839,2.9674,2.9674,2.9706,2.9947,2.9984,3.0005,2.9808,2.9811,2.9814,2.9948,0,2.9728,2.9805,2.9764,2.9847,2.9877,2.9811,2.9851,2.9849,2.9831,2.9854,2.9833,2.986,2.98,2.9803,2.9838,2.9818,2.9886,2.9807,2.9843,2.9845,2.9847,3.0028,3.0066,3.0193,2.9964,2.9967,2.9969,0,2.9892,2.9903,2.9989,2.9973,2.9984,3.0021,3.0033,3.0056,3.0052,3.0036,3.0043,3.0001,3.0045,2.9974,3.0035,2.9983,2.9995,2.9987,2.9991,2.9993,2.9914,3.0035,3.0233,3.0252,2.9995,2.9993,2.9991,0,3.0033,3.0069,3.0125,3.0128,3.011,3.0138,3.0132,3.0124,3.0137,3.0147,3.0154,3.017,3.0178,3.0191,3.0154,3.0106,3.0221,3.0146,3.0209,3.021,3.0236,3.0235,3.0439,3.0244,3.0244,3.0243,3.0243,0,3.0185,3.0241,3.0188,3.0223,3.0283,3.0236,3.0297,3.0283,3.0278,3.0309,3.0252,3.0283,3.0232,3.0258,3.023,3.0285,3.0289,3.0278,3.027,3.0283,3.0285,3.029,3.0281,3.0248,3.0247,3.0246,3.0245,0,3.0352,3.0319,3.0376,3.0355,3.0351,3.0397,3.0379,3.041,3.0388,3.0429,3.0435,3.0401,3.0428,3.0393,3.0417,3.0398,3.0474,3.0452,3.0475,3.0469,3.0534,3.0529,3.0749,3.0776,3.0563,3.0565,3.0567,0,3.0452,3.0493,3.0477,3.0494,3.0491,3.0519,3.0531,3.0486,3.0502,3.0501,3.0533,3.0556,3.0572,3.0619,3.0596,3.0615,3.0593,3.0669,3.0596,3.0608,3.0595,3.0593,3.0597,3.0685,3.0687,3.0689,3.0691,0,3.0633,3.0614,3.0634,3.0649,3.0666,3.0675,3.0681,3.0698,3.0651,3.0671,3.0698,3.0711,3.0736,3.0759,3.0772,3.0765,3.0721,3.0714,3.073,3.0744,3.0756,3.0751,3.0517,3.0709,3.0708,3.0706,3.0705,3.0704,3.0769,3.0803,3.0797,3.0821,3.0821,3.0827,3.0856,3.0838,3.086,3.0877,3.0849,3.0884,3.088,3.0892,3.0891,3.0918,3.0885,3.0908,3.0913,3.092,3.093,3.0752,3.092,3.0919,3.0919,3.0918,3.0918,0,3.0947,3.094,3.0963,3.0973,3.0992,3.0949,3.0952,3.0972,3.1003,3.1003,3.102,3.1052,3.1075,3.1055,3.1073,3.1099,3.1079,3.1105,3.1103,3.1103,3.0958,3.0943,3.1121,3.1121,3.1121,3.1121,3.1121,3.1121,3.1042,3.1098,3.1079,3.1133,3.1126,3.116,3.1166,3.1172,3.1171,3.121,3.1228,3.1215,3.1207,3.1225,3.1244,3.1237,3.1247,3.1281,3.1268,3.1133,3.1113,3.1094,3.1079,3.1283,3.1284,3.141,3.1411,3.1412]},{"header":{"parameterUnit":"m.s-1","parameterCategory":1,"la1":30.2991,"la2":30.254,"lo1":-89.0895,"lo2":-89.0444,"dy":0.0017,"dx":0.0017,"nx":28,"ny":28,"refTime":"2024-02-29T03:00:00:Z","depth":0,"parameterNumber":3,"parameterNumberName":"V-component_of_WINDS"},"data":[0,0,0,0,0,0,0,0,0,0,0,0,0,0,0,0,0,0,0,0,0,0,0,0,0,0,0,0,0,0,0,0,0,0,0,0,0,0,0,0,0,0,0,0,0,0,0,0,0,0,0,0,0,0,0,0,0,0,0.9152,0.9158,0,0.9773,0.978,0.9787,1.0011,1.0009,1.0007,1.0005,1.0654,1.0673,1.0692,0,0,0,0,0,0,0,0,0,0,0,0,0,0.8167,0.8184,0.9151,0.9159,0.9167,0.9772,0.9781,0.9789,1.0011,1.0009,1.0006,1.0003,1.0647,1.067,1.0694,0,0,0,0,0,0,0,0,0,0,0,0,0,0.8672,0.8189,0.915,0.935,0.9374,0.977,0.9781,0.9792,1.0012,1.0009,1.0005,1.0002,1.064,1.0668,1.0697,1.0943,0,0,1.0786,1.0798,0,0,0,0,0,0,0,0,0.8643,0.8708,0.9313,0.9337,0.9365,0.9811,0.9672,1.0178,1.0013,0.977,1.0004,1.0001,1.0377,1.0427,1.0552,1.0973,1.1001,1.0788,1.0806,1.0818,1.0826,0,0,0,0,0,0,0,0.8608,0.8683,0.9398,0.9321,0.9353,0.9413,0.9481,0.9769,1.0085,0.9791,0.9809,0.9879,1.0391,1.0523,1.0569,1.1011,1.0787,1.0813,1.0831,1.0842,1.1666,1.167,0,0,0,0,0,0,0.8538,0.8652,0.9378,0.9416,0.8988,0.9433,0.9509,0.9671,1.0083,1.0142,0.9881,0.9887,1.0475,1.0535,1.0592,1.0909,1.0818,1.0845,1.0862,1.1662,1.1667,1.1672,0,0,0,0,0,0,0.8516,0.86,0.9353,0.9039,0.914,0.9453,0.9634,0.9685,0.9818,1.015,1.0209,0.9958,1.0475,1.0552,1.0853,1.0934,1.0858,1.0885,1.1656,1.1663,1.1669,1.1541,0,0,0,0,0,0,0.8487,0.8591,0.8685,0.904,0.9155,0.96,0.9639,0.97,0.9866,0.988,1.0238,1.0294,1.0478,1.0809,1.0882,1.0973,1.0907,1.1651,1.1659,1.1667,1.1539,1.1542,1.1545,0,0,0,0,0,0.8451,0.8627,0.8689,0.8776,0.9279,0.9604,0.9671,0.9875,0.9871,0.9971,1.0184,1.0283,1.0912,1.0838,1.0922,1.1023,1.1647,1.1657,1.1667,1.1538,1.1542,1.1545,0,0,0,0,0,0,0.828,0.8678,0.8751,0.9046,0.9288,0.9641,0.9773,0.9873,1.0125,1.0128,1.0375,1.0454,1.0736,1.091,1.082,1.1283,1.1286,1.1313,1.1159,1.1165,1.1168,1.1121,1.0932,0,0,0,0,0,0.8275,0.8502,0.8839,0.9068,0.9185,0.9456,0.9606,0.9742,1.0005,1.0111,1.0346,1.0601,1.0857,1.102,1.1274,1.1564,1.1647,1.1675,1.1677,1.1678,1.17,1.1867,1.1884,1.1705,1.1705,1.1705,0,0,0.8271,0.8516,0.8645,0.9039,0.9244,0.9476,0.9542,0.9786,0.9962,1.015,1.0448,1.0629,1.093,1.1226,1.1369,1.138,1.1767,1.1691,1.1689,1.1712,1.1879,1.1896,1.1911,1.1712,1.171,1.1709,0,0,0.8382,0.8589,0.8802,0.9004,0.931,0.9489,0.9539,0.9877,1.0003,1.0305,1.045,1.0665,1.1099,1.1308,1.147,1.1656,1.1757,1.1732,1.1748,1.1907,1.1922,1.1935,1.2003,1.2024,1.1752,1.1752,1.1752,0,0.834,0.8692,0.89,0.9135,0.9305,0.9479,0.9699,0.9886,1.0261,1.0376,1.0381,1.0929,1.1144,1.1492,1.1536,1.1662,1.173,1.1694,1.1902,1.1918,1.1934,1.2002,1.2026,1.1747,1.1747,1.1748,1.1748,0,0.8625,0.8866,0.9002,0.9354,0.954,0.9766,1.0011,1.0174,1.0293,1.0472,1.0778,1.1041,1.135,1.1443,1.1564,1.1809,1.1806,1.1853,1.1862,1.1942,1.201,1.2038,1.174,1.1741,1.1743,1.1744,0,0,0.8649,0.911,0.9157,0.9318,0.9667,0.9861,1.0095,1.0393,1.0529,1.0781,1.0986,1.1347,1.1392,1.1577,1.1722,1.1862,1.1993,1.1894,1.1905,1.1904,1.2281,1.2244,1.2271,1.206,1.2066,1.2071,1.2256,0,0.8807,0.9229,0.9422,0.976,0.9987,1.0155,1.0359,1.0597,1.077,1.0991,1.1184,1.1436,1.1476,1.1589,1.1734,1.1946,1.2073,1.1935,1.2257,1.2266,1.2178,1.2306,1.227,1.2432,1.2284,1.2289,1.2292,0,0.9049,0.9295,0.9653,0.9974,1.0077,1.0257,1.0545,1.0753,1.1027,1.1143,1.1346,1.1485,1.174,1.1728,1.2085,1.1986,1.213,1.2253,1.2265,1.2305,1.2285,1.2352,1.2489,1.2513,1.2336,1.2332,1.2329,0,0.9032,0.9454,0.9723,0.9856,1.0237,1.0359,1.0524,1.0794,1.0961,1.1214,1.1325,1.1605,1.1759,1.1974,1.2186,1.2157,1.2523,1.2528,1.263,1.2625,1.2703,1.2695,1.2865,1.2789,1.2789,1.2788,1.2788,0,0.919,0.9403,0.972,0.9886,1.013,1.0351,1.0588,1.0766,1.1004,1.121,1.1372,1.1563,1.1829,1.2054,1.2222,1.2492,1.2561,1.2664,1.2707,1.2651,1.2638,1.2751,1.2746,1.2795,1.2794,1.2792,1.2791,0,0.9214,0.9434,0.9739,1.0072,1.0161,1.0326,1.0614,1.0783,1.0961,1.1219,1.1293,1.1576,1.1848,1.2079,1.244,1.2552,1.2833,1.2883,1.2739,1.2763,1.2852,1.284,1.3103,1.3149,1.3037,1.3038,1.3038,0,0.9301,0.9468,0.9817,0.9964,1.0125,1.0361,1.053,1.0754,1.0924,1.1247,1.1377,1.166,1.1899,1.2327,1.2567,1.2843,1.2903,1.2975,1.2946,1.2884,1.2906,1.2894,1.2913,1.2977,1.2977,1.2977,1.2977,0,0.9433,0.9532,0.9768,1.0041,1.0237,1.0465,1.0697,1.0809,1.1076,1.1259,1.1538,1.1722,1.2087,1.2367,1.2669,1.2843,1.2957,1.2984,1.3023,1.2969,1.288,1.2931,1.2746,1.2978,1.2978,1.2978,1.2978,1.2978,0.9494,0.9649,0.9919,1.0176,1.0372,1.0585,1.0759,1.0957,1.1192,1.1504,1.1622,1.1907,1.2177,1.2593,1.2767,1.2995,1.3012,1.3067,1.3082,1.3093,1.3085,1.2839,1.3051,1.3051,1.3052,1.3052,1.3052,0,0.9635,0.9815,1.0049,1.0366,1.0568,1.065,1.0911,1.1076,1.1323,1.1563,1.1793,1.2113,1.2385,1.2643,1.2929,1.3062,1.3121,1.313,1.3124,1.3163,1.3053,1.2992,1.3077,1.3077,1.3077,1.3077,1.3077,1.3077,0.9733,1.0001,1.0132,1.05,1.0682,1.0958,1.11,1.1298,1.149,1.1838,1.2063,1.2228,1.2478,1.2782,1.3035,1.3105,1.3204,1.3199,1.3282,1.3176,1.317,1.3165,1.3109,1.3218,1.3218,1.3374,1.3375,1.3376]}]]